Location: Ipswich
(52.0579°N, 1.1528°E)
Time: 21:56:10
(UTC+01:00)

ISS - Pass Details

Date: 09 May 2026
Orbit: 414 x 424 km, 51.6° (Epoch: 15 May)

Event Time Altitude Azimuth Distance (km) Brightness Sun altitude
Exits shadow 03:57:13 15° 234° (SW) 1,252 -2.0 -9.8°
Maximum altitude 03:57:58 15° 219° (SW) 1,211 -2.1 -9.7°
Drops below altitude 10° 04:00:01 10° 181° (S) 1,495 -1.4 -9.5°
Sets 04:02:43 0° 157° (SSE) 2,357 -0.2 -9.2°
